Location: Unspecified
(0.0000°N, 0.0000°E)
Time: 17:19:31
(UTC+02:00)

Tiros 1 despin weight - All Passes

Search period start: 31 August 2015 00:00
Search period end: 10 September 2015 00:00
Orbit: 597 x 646 km, 48.2° (Epoch: 31 August)

Date Brightness Start Highest point End Pass type
(mag) Time Alt. Az. Time Alt. Az. Time Alt. Az.
31 Aug - 06:41:44 10° SSW 06:46:17 61° SE 06:50:45 10° NE visible
31 Aug - 18:50:24 10° NW 18:54:54 79° SW 18:59:30 10° SE daylight
01 Sep - 05:20:11 10° SSE 05:22:24 14° SE 05:24:49 10° E visible
01 Sep - 06:59:38 10° SW 07:04:04 45° NW 07:08:23 10° NNE visible
01 Sep - 17:27:48 10° N 17:31:10 21° NE 17:34:42 10° E daylight
01 Sep - 19:08:50 10° WNW 19:12:43 27° SW 19:16:36 10° S daylight
02 Sep - 05:36:06 10° SSW 05:40:20 36° SE 05:44:33 10° ENE visible
02 Sep - 07:18:53 10° W 07:21:56 17° NW 07:24:44 10° N visible
02 Sep - 17:44:33 10° NNW 17:48:59 60° NE 17:53:29 10° SE daylight
02 Sep - 19:30:17 10° SW 19:30:44 10° SW 19:30:52 10° SW daylight
03 Sep - 05:53:29 10° SW 05:58:08 79° NW 06:02:40 10° NE visible
03 Sep - 16:23:14 10° NNE 16:25:09 13° NE 16:27:19 10° ENE daylight
03 Sep - 18:02:26 10° NW 18:06:46 45° SW 18:11:08 10° SSE daylight
04 Sep - 04:30:46 10° S 04:34:20 22° SE 04:37:58 10° E night (unlit)
04 Sep - 06:11:57 10° WSW 06:15:55 27° NW 06:19:45 10° N visible
04 Sep - 16:39:00 10° NNW 16:43:02 35° NE 16:47:12 10° ESE daylight
04 Sep - 18:21:39 10° W 18:24:38 17° SW 18:27:30 10° S daylight
05 Sep - 04:47:35 10° SSW 04:52:11 61° SE 04:56:42 10° NE visible
05 Sep - 06:33:31 10° NW 06:33:51 10° NW 06:33:53 10° NW visible
05 Sep - 16:56:21 10° NW 17:00:49 79° SW 17:05:21 10° SE daylight
06 Sep - 03:26:01 10° SSE 03:28:16 14° SE 03:30:45 10° E night (unlit)
06 Sep - 05:05:29 10° SW 05:09:57 46° NW 05:14:20 10° NNE visible
06 Sep - 15:33:46 10° N 15:37:05 21° NE 15:40:32 10° E daylight
06 Sep - 17:14:47 10° WNW 17:18:38 27° SW 17:22:27 10° S daylight
07 Sep - 03:41:55 10° SSW 03:46:12 36° SE 03:50:28 10° ENE night (unlit)
07 Sep - 05:24:41 10° W 05:27:48 17° NW 05:30:42 10° N night (unlit)
07 Sep - 15:50:31 10° NNW 15:54:53 60° NE 15:59:20 10° SE daylight
08 Sep - 03:59:18 10° SW 04:03:59 79° NW 04:08:35 10° NE night (unlit)
08 Sep - 14:29:14 10° NNE 14:31:03 13° NE 14:33:07 10° ENE daylight
08 Sep - 16:08:22 10° NW 16:12:38 45° SW 16:16:58 10° SSE daylight
09 Sep - 02:36:35 10° S 02:40:11 22° SE 02:43:52 10° ENE night (unlit)
09 Sep - 04:17:44 10° WSW 04:21:46 28° NW 04:25:41 10° N night (unlit)
09 Sep - 14:44:56 10° NNW 14:48:56 34° NE 14:53:02 10° ESE daylight
09 Sep - 16:27:34 10° W 16:30:32 17° SW 16:33:19 10° S daylight
